| time (UTC) | temp F | wind direction | speed knots | gust knots | rain 1hr in | rain 24hr in | rain mn in | humidity % | barometer mb |
| 20260509150109 | 61 | 39 | 1.7 | 3.5 | 0.00 | 0.00 | 0.00 | 54 | 909.6 |
| 20260509145609 | 61 | 40 | 1.7 | 4.3 | 0.00 | 0.00 | 0.00 | 54 | 909.6 |
| 20260509145109 | 61 | 33 | 1.7 | 4.3 | 0.00 | 0.00 | 0.00 | 57 | 909.6 |
| 20260509144609 | 61 | 45 | 2.6 | 4.3 | 0.00 | 0.00 | 0.00 | 54 | 909.6 |
| 20260509144109 | 61 | 31 | 2.6 | 5.2 | 0.00 | 0.00 | 0.00 | 55 | 909.6 |
| 20260509143609 | 61 | 29 | 2.6 | 6.1 | 0.00 | 0.00 | 0.00 | 54 | 909.6 |
| 20260509143109 | 61 | 42 | 2.6 | 4.3 | 0.00 | 0.00 | 0.00 | 54 | 909.6 |
| 20260509142609 | 61 | 43 | 2.6 | 4.3 | 0.00 | 0.00 | 0.00 | 54 | 909.6 |
| 20260509142109 | 61 | 39 | 2.6 | 6.1 | 0.00 | 0.00 | 0.00 | 54 | 909.6 |
| 20260509141609 | 62 | 26 | 2.6 | 5.2 | 0.00 | 0.00 | 0.00 | 55 | 909.5 |
| 20260509141109 | 62 | 46 | 3.5 | 7.0 | 0.00 | 0.00 | 0.00 | 54 | 909.5 |
| 20260509140609 | 62 | 42 | 3.5 | 7.8 | 0.00 | 0.00 | 0.00 | 55 | 909.5 |
| 20260509140109 | 62 | 42 | 3.5 | 7.8 | 0.00 | 0.00 | 0.00 | 53 | 909.6 |
| 20260509135609 | 62 | 15 | 3.5 | 5.2 | 0.00 | 0.00 | 0.00 | 54 | 909.5 |
| 20260509135109 | 62 | 41 | 3.5 | 8.7 | 0.00 | 0.00 | 0.00 | 53 | 909.6 |
| 20260509134609 | 62 | 29 | 3.5 | 5.2 | 0.00 | 0.00 | 0.00 | 53 | 909.5 |
| 20260509134109 | 62 | 33 | 3.5 | 7.8 | 0.00 | 0.00 | 0.00 | 53 | 909.4 |
| 20260509133609 | 62 | 37 | 2.6 | 6.1 | 0.00 | 0.00 | 0.00 | 52 | 909.4 |
| 20260509133109 | 62 | 44 | 2.6 | 5.2 | 0.00 | 0.00 | 0.00 | 53 | 909.5 |
| 20260509132609 | 63 | 32 | 3.5 | 5.2 | 0.00 | 0.00 | 0.00 | 53 | 909.5 |
| 20260509132109 | 63 | 40 | 3.5 | 8.7 | 0.00 | 0.00 | 0.00 | 53 | 909.4 |
| 20260509131609 | 63 | 31 | 1.7 | 5.2 | 0.00 | 0.00 | 0.00 | 53 | 909.4 |
| 20260509131112 | 63 | 25 | 0.9 | 4.3 | 0.00 | 0.00 | 0.00 | 60 | 909.3 |
| 20260509130609 | 63 | 36 | 0.9 | 1.7 | 0.00 | 0.00 | 0.00 | 55 | 909.3 |
| 20260509130109 | 63 | 35 | 1.7 | 3.5 | 0.00 | 0.00 | 0.00 | 55 | 909.3 |
| 20260509125609 | 63 | 37 | 1.7 | 5.2 | 0.00 | 0.00 | 0.00 | 54 | 909.2 |
| 20260509125109 | 63 | 38 | 1.7 | 5.2 | 0.00 | 0.00 | 0.00 | 54 | 909.1 |
| 20260509124609 | 63 | 43 | 2.6 | 4.3 | 0.00 | 0.00 | 0.00 | 53 | 909.1 |
| 20260509124109 | 63 | 40 | 3.5 | 7.0 | 0.00 | 0.00 | 0.00 | 54 | 909.1 |
| 20260509123609 | 63 | 37 | 2.6 | 7.0 | 0.00 | 0.00 | 0.00 | 54 | 909.2 |
| 20260509123109 | 63 | 43 | 3.5 | 7.0 | 0.00 | 0.00 | 0.00 | 55 | 909.2 |
| 20260509122609 | 63 | 39 | 5.2 | 8.7 | 0.00 | 0.00 | 0.00 | 53 | 909.3 |
| 20260509122109 | 63 | 45 | 6.1 | 9.6 | 0.00 | 0.00 | 0.00 | 53 | 909.2 |
| 20260509121609 | 63 | 38 | 6.1 | 10.4 | 0.00 | 0.00 | 0.00 | 52 | 909.2 |
| 20260509121109 | 64 | 24 | 5.2 | 11.3 | 0.00 | 0.00 | 0.00 | 53 | 909.2 |
| 20260509120609 | 64 | 16 | 4.3 | 8.7 | 0.00 | 0.00 | 0.00 | 54 | 909.2 |
| 20260509120109 | 64 | 23 | 3.5 | 7.8 | 0.00 | 0.00 | 0.00 | 51 | 909.2 |
| 20260509115610 | 64 | 9 | 3.5 | 7.0 | 0.00 | 0.00 | 0.00 | 51 | 909.2 |
| 20260509115110 | 64 | 35 | 3.5 | 8.7 | 0.00 | 0.00 | 0.00 | 52 | 909.1 |
| 20260509114610 | 64 | 31 | 3.5 | 8.7 | 0.00 | 0.00 | 0.00 | 54 | 909.1 |
| 20260509114110 | 64 | 33 | 3.5 | 7.8 | 0.00 | 0.00 | 0.00 | 50 | 909.1 |
| 20260509113610 | 65 | 50 | 3.5 | 7.0 | 0.00 | 0.00 | 0.00 | 50 | 909.1 |
| 20260509113110 | 65 | 30 | 3.5 | 7.8 | 0.00 | 0.00 | 0.00 | 51 | 909.0 |
| 20260509112610 | 65 | 29 | 4.3 | 9.6 | 0.00 | 0.00 | 0.00 | 51 | 909.0 |
| 20260509112110 | 65 | 10 | 5.2 | 10.4 | 0.00 | 0.00 | 0.00 | 50 | 908.9 |
| 20260509111610 | 65 | 12 | 4.3 | 9.6 | 0.00 | 0.00 | 0.00 | 49 | 908.8 |
| 20260509111110 | 65 | 31 | 5.2 | 8.7 | 0.00 | 0.00 | 0.00 | 48 | 908.9 |
| 20260509110610 | 65 | 27 | 4.3 | 12.2 | 0.00 | 0.00 | 0.00 | 47 | 908.8 |
| 20260509110110 | 65 | 39 | 3.5 | 5.2 | 0.00 | 0.00 | 0.00 | 48 | 908.7 |
| 20260509105610 | 66 | 24 | 3.5 | 9.6 | 0.00 | 0.00 | 0.00 | 47 | 908.7 |
| 20260509105110 | 66 | 15 | 4.3 | 7.8 | 0.00 | 0.00 | 0.00 | 47 | 908.5 |
| 20260509104610 | 66 | 51 | 5.2 | 9.6 | 0.00 | 0.00 | 0.00 | 48 | 908.5 |
| 20260509104110 | 66 | 24 | 7.0 | 11.3 | 0.00 | 0.00 | 0.00 | 47 | 908.3 |
| 20260509103610 | 66 | 16 | 6.1 | 11.3 | 0.00 | 0.00 | 0.00 | 46 | 908.2 |
| 20260509103110 | 66 | 41 | 5.2 | 10.4 | 0.00 | 0.00 | 0.00 | 46 | 908.2 |
| 20260509102610 | 67 | 43 | 5.2 | 12.2 | 0.00 | 0.00 | 0.00 | 52 | 908.1 |
| 20260509102110 | 67 | 26 | 5.2 | 8.7 | 0.00 | 0.00 | 0.00 | 45 | 907.6 |
| 20260509101610 | 67 | 34 | 4.3 | 9.6 | 0.00 | 0.00 | 0.00 | 44 | 907.6 |
| 20260509101110 | 67 | 20 | 5.2 | 8.7 | 0.00 | 0.00 | 0.00 | 45 | 907.5 |
| 20260509100610 | 67 | 27 | 5.2 | 13.0 | 0.00 | 0.00 | 0.00 | 44 | 907.5 |
| 20260509100110 | 67 | 29 | 5.2 | 10.4 | 0.00 | 0.00 | 0.00 | 44 | 907.5 |
| 20260509095610 | 67 | 15 | 7.0 | 9.6 | 0.00 | 0.00 | 0.00 | 44 | 907.4 |
| 20260509095110 | 67 | 23 | 7.0 | 12.2 | 0.00 | 0.00 | 0.00 | 43 | 907.2 |
| 20260509094610 | 68 | 26 | 7.0 | 14.8 | 0.00 | 0.00 | 0.00 | 43 | 907.2 |
| 20260509094110 | 68 | 27 | 7.0 | 13.0 | 0.00 | 0.00 | 0.00 | 42 | 907.1 |
| 20260509093610 | 68 | 37 | 6.1 | 12.2 | 0.00 | 0.00 | 0.00 | 42 | 906.9 |
| 20260509093110 | 68 | 23 | 6.1 | 13.0 | 0.00 | 0.00 | 0.00 | 42 | 906.9 |
| 20260509092610 | 69 | 20 | 6.1 | 13.0 | 0.00 | 0.00 | 0.00 | 43 | 906.7 |
| 20260509092110 | 69 | 36 | 7.0 | 11.3 | 0.00 | 0.00 | 0.00 | 42 | 906.7 |
| 20260509091610 | 69 | 41 | 7.0 | 15.6 | 0.00 | 0.00 | 0.00 | 42 | 906.6 |
| 20260509091110 | 69 | 280 | 7.0 | 11.3 | 0.00 | 0.00 | 0.00 | 42 | 906.6 |
| 20260509090610 | 69 | 40 | 8.7 | 19.1 | 0.00 | 0.00 | 0.00 | 42 | 906.6 |
| 20260509090110 | 69 | 345 | 7.0 | 19.1 | 0.00 | 0.00 | 0.00 | 41 | 906.6 |
| 20260509085610 | 70 | 349 | 6.1 | 13.0 | 0.00 | 0.00 | 0.00 | 40 | 906.7 |
| 20260509085110 | 70 | 29 | 5.2 | 15.6 | 0.00 | 0.00 | 0.00 | 43 | 906.6 |
| 20260509084610 | 71 | 42 | 4.3 | 12.2 | 0.00 | 0.00 | 0.00 | 40 | 906.4 |
| 20260509084110 | 71 | 359 | 6.1 | 12.2 | 0.00 | 0.00 | 0.00 | 40 | 906.5 |
| 20260509083610 | 71 | 40 | 7.8 | 15.6 | 0.00 | 0.00 | 0.00 | 37 | 906.4 |
| 20260509083110 | 71 | 27 | 7.8 | 15.6 | 0.00 | 0.00 | 0.00 | 31 | 906.5 |
| 20260509082610 | 71 | 37 | 8.7 | 16.5 | 0.00 | 0.00 | 0.00 | 37 | 906.3 |
| 20260509082110 | 71 | 33 | 9.6 | 17.4 | 0.00 | 0.00 | 0.00 | 30 | 906.3 |
| 20260509081610 | 72 | 43 | 7.8 | 16.5 | 0.00 | 0.00 | 0.00 | 31 | 906.2 |
| 20260509081110 | 72 | 33 | 7.8 | 13.0 | 0.00 | 0.00 | 0.00 | 30 | 906.2 |
| 20260509080610 | 72 | 26 | 7.8 | 14.8 | 0.00 | 0.00 | 0.00 | 30 | 906.2 |
| 20260509080110 | 72 | 40 | 6.1 | 14.8 | 0.00 | 0.00 | 0.00 | 30 | 906.4 |
| 20260509075610 | 72 | 4 | 6.1 | 11.3 | 0.00 | 0.00 | 0.00 | 31 | 906.2 |
| 20260509075110 | 72 | 339 | 7.0 | 12.2 | 0.00 | 0.00 | 0.00 | 31 | 906.1 |
| 20260509074610 | 72 | 20 | 7.8 | 14.8 | 0.00 | 0.00 | 0.00 | 31 | 906.1 |
| 20260509074110 | 72 | 31 | 7.8 | 13.0 | 0.00 | 0.00 | 0.00 | 30 | 906.2 |
| 20260509073610 | 73 | 28 | 7.8 | 14.8 | 0.00 | 0.00 | 0.00 | 31 | 906.2 |
| 20260509073110 | 73 | 26 | 7.8 | 13.0 | 0.00 | 0.00 | 0.00 | 31 | 906.1 |
| 20260509072610 | 73 | 26 | 7.8 | 17.4 | 0.00 | 0.00 | 0.00 | 31 | 906.2 |
| 20260509072110 | 73 | 23 | 5.2 | 11.3 | 0.00 | 0.00 | 0.00 | 29 | 906.1 |
| 20260509071610 | 73 | 20 | 4.3 | 10.4 | 0.00 | 0.00 | 0.00 | 35 | 906.2 |
| 20260509071110 | 73 | 32 | 7.0 | 13.9 | 0.00 | 0.00 | 0.00 | 28 | 906.2 |
| 20260509070610 | 73 | 43 | 7.8 | 16.5 | 0.00 | 0.00 | 0.00 | 33 | 906.2 |
| 20260509070110 | 73 | 33 | 7.8 | 13.9 | 0.00 | 0.00 | 0.00 | 29 | 906.1 |
| 20260509065610 | 73 | 42 | 7.8 | 14.8 | 0.00 | 0.00 | 0.00 | 29 | 906.2 |
| 20260509065110 | 73 | 44 | 8.7 | 13.9 | 0.00 | 0.00 | 0.00 | 29 | 905.9 |
| 20260509064610 | 73 | 37 | 7.8 | 16.5 | 0.00 | 0.00 | 0.00 | 32 | 905.9 |
| 20260509064110 | 73 | 38 | 7.8 | 13.9 | 0.00 | 0.00 | 0.00 | 27 | 905.9 |
| 20260509063610 | 73 | 40 | 8.7 | 13.9 | 0.00 | 0.00 | 0.00 | 29 | 905.8 |
| 20260509063110 | 73 | 51 | 9.6 | 17.4 | 0.00 | 0.00 | 0.00 | 29 | 905.8 |
| 20260509062610 | 73 | 349 | 7.0 | 16.5 | 0.00 | 0.00 | 0.00 | 28 | 905.7 |
| 20260509062110 | 73 | 25 | 7.0 | 14.8 | 0.00 | 0.00 | 0.00 | 28 | 905.8 |
| 20260509061610 | 73 | 43 | 9.6 | 19.1 | 0.00 | 0.00 | 0.00 | 29 | 905.7 |
| 20260509061110 | 73 | 35 | 7.8 | 19.1 | 0.00 | 0.00 | 0.00 | 28 | 905.7 |
| 20260509060610 | 73 | 39 | 7.0 | 15.6 | 0.00 | 0.00 | 0.00 | 29 | 905.4 |
| 20260509060110 | 73 | 40 | 8.7 | 13.9 | 0.00 | 0.00 | 0.00 | 29 | 905.5 |
| 20260509055610 | 73 | 29 | 8.7 | 13.9 | 0.00 | 0.00 | 0.00 | 29 | 905.5 |
| 20260509055110 | 73 | 25 | 8.7 | 15.6 | 0.00 | 0.00 | 0.00 | 30 | 905.8 |
| 20260509054610 | 72 | 18 | 8.7 | 17.4 | 0.00 | 0.00 | 0.00 | 29 | 905.1 |
| 20260509054110 | 73 | 39 | 7.8 | 16.5 | 0.00 | 0.00 | 0.00 | 30 | 905.0 |
| 20260509053610 | 73 | 23 | 9.6 | 16.5 | 0.00 | 0.00 | 0.00 | 30 | 905.5 |
| 20260509053110 | 73 | 4 | 9.6 | 19.1 | 0.00 | 0.00 | 0.00 | 30 | 905.4 |
| 20260509052610 | 73 | 33 | 8.7 | 14.8 | 0.00 | 0.00 | 0.00 | 33 | 905.6 |
| 20260509052110 | 72 | 17 | 9.6 | 14.8 | 0.00 | 0.00 | 0.00 | 32 | 905.4 |
| 20260509051610 | 72 | 22 | 9.6 | 16.5 | 0.00 | 0.00 | 0.00 | 31 | 905.5 |
| 20260509051110 | 73 | 38 | 8.7 | 15.6 | 0.00 | 0.00 | 0.00 | 28 | 905.3 |
| 20260509050610 | 73 | 16 | 8.7 | 15.6 | 0.00 | 0.00 | 0.00 | 30 | 905.5 |
| 20260509050110 | 72 | 13 | 9.6 | 19.1 | 0.00 | 0.00 | 0.00 | 33 | 905.8 |
| 20260509045610 | 72 | 32 | 9.6 | 17.4 | 0.00 | 0.00 | 0.00 | 30 | 905.5 |
| 20260509045111 | 72 | 32 | 9.6 | 17.4 | 0.00 | 0.00 | 0.00 | 33 | 905.9 |
| 20260509044610 | 71 | 41 | 9.6 | 19.1 | 0.00 | 0.00 | 0.00 | 32 | 905.6 |
| 20260509044110 | 72 | 25 | 8.7 | 18.2 | 0.00 | 0.00 | 0.00 | 31 | 905.8 |
| 20260509043610 | 72 | 354 | 8.7 | 18.2 | 0.00 | 0.00 | 0.00 | 32 | 905.8 |
| 20260509043111 | 72 | 34 | 9.6 | 17.4 | 0.00 | 0.00 | 0.00 | 31 | 906.1 |
| 20260509042611 | 72 | 45 | 7.8 | 15.6 | 0.00 | 0.00 | 0.00 | 34 | 906.2 |
| 20260509042110 | 73 | 31 | 7.0 | 17.4 | 0.00 | 0.00 | 0.00 | 32 | 905.9 |
| 20260509041611 | 72 | 35 | 8.7 | 15.6 | 0.00 | 0.00 | 0.00 | 32 | 906.3 |
| 20260509041111 | 72 | 36 | 8.7 | 14.8 | 0.00 | 0.00 | 0.00 | 32 | 906.1 |
| 20260509040611 | 71 | 359 | 7.8 | 13.9 | 0.00 | 0.00 | 0.00 | 32 | 905.8 |
| 20260509040111 | 71 | 35 | 7.8 | 13.0 | 0.00 | 0.00 | 0.00 | 32 | 905.9 |
| 20260509035611 | 71 | 37 | 8.7 | 13.0 | 0.00 | 0.00 | 0.00 | 35 | 906.2 |
| 20260509035111 | 71 | 27 | 7.8 | 16.5 | 0.00 | 0.00 | 0.00 | 35 | 906.1 |
| 20260509034611 | 71 | 31 | 6.1 | 14.8 | 0.00 | 0.00 | 0.00 | 34 | 906.2 |
| 20260509034111 | 71 | 42 | 7.0 | 13.0 | 0.00 | 0.00 | 0.00 | 35 | 906.4 |
| 20260509033611 | 70 | 35 | 8.7 | 13.0 | 0.00 | 0.00 | 0.00 | 35 | 906.3 |
| 20260509033111 | 70 | 14 | 10.4 | 16.5 | 0.00 | 0.00 | 0.00 | 38 | 906.4 |
| 20260509032611 | 70 | 38 | 9.6 | 19.1 | 0.00 | 0.00 | 0.00 | 35 | 906.4 |
| 20260509032111 | 70 | 16 | 7.0 | 17.4 | 0.00 | 0.00 | 0.00 | 36 | 906.4 |
| 20260509031611 | 70 | 39 | 7.8 | 12.2 | 0.00 | 0.00 | 0.00 | 37 | 906.5 |
| 20260509031111 | 69 | 359 | 7.8 | 19.1 | 0.00 | 0.00 | 0.00 | 38 | 906.6 |
| 20260509030611 | 69 | 359 | 8.7 | 12.2 | 0.00 | 0.00 | 0.00 | 40 | 906.6 |
| 20260509030111 | 69 | 29 | 7.8 | 22.6 | 0.00 | 0.00 | 0.00 | 38 | 906.5 |
| 20260509025611 | 69 | 10 | 7.8 | 11.3 | 0.00 | 0.00 | 0.00 | 39 | 906.4 |
| 20260509025111 | 68 | 14 | 9.6 | 20.0 | 0.00 | 0.00 | 0.00 | 40 | 906.5 |
| 20260509024611 | 68 | 193 | 7.8 | 18.2 | 0.00 | 0.00 | 0.00 | 38 | 906.5 |
| 20260509024111 | 68 | 349 | 7.8 | 13.9 | 0.00 | 0.00 | 0.00 | 38 | 906.5 |
| 20260509023611 | 68 | 33 | 8.7 | 15.6 | 0.00 | 0.00 | 0.00 | 39 | 906.3 |
| 20260509023111 | 68 | 36 | 9.6 | 18.2 | 0.00 | 0.00 | 0.00 | 39 | 906.4 |
| 20260509022611 | 68 | 35 | 7.8 | 16.5 | 0.00 | 0.00 | 0.00 | 40 | 906.6 |
| 20260509022111 | 68 | 25 | 6.1 | 15.6 | 0.00 | 0.00 | 0.00 | 41 | 906.5 |
| 20260509021611 | 67 | 354 | 7.8 | 13.0 | 0.00 | 0.00 | 0.00 | 40 | 906.7 |
| 20260509021111 | 67 | 4 | 8.7 | 18.2 | 0.00 | 0.00 | 0.00 | 48 | 906.8 |
| 20260509020611 | 67 | 12 | 7.8 | 13.0 | 0.00 | 0.00 | 0.00 | 41 | 906.7 |
| 20260509020111 | 67 | 45 | 8.7 | 14.8 | 0.00 | 0.00 | 0.00 | 41 | 906.7 |
| 20260509015611 | 66 | 39 | 8.7 | 16.5 | 0.00 | 0.00 | 0.00 | 46 | 906.8 |
| 20260509015111 | 66 | 39 | 10.4 | 13.9 | 0.00 | 0.00 | 0.00 | 43 | 906.5 |
| 20260509014611 | 66 | 31 | 11.3 | 24.3 | 0.00 | 0.00 | 0.00 | 42 | 906.9 |
| 20260509014111 | 65 | 39 | 9.6 | 20.0 | 0.00 | 0.00 | 0.00 | 44 | 906.6 |
| 20260509013611 | 65 | 23 | 8.7 | 20.0 | 0.00 | 0.00 | 0.00 | 45 | 907.0 |
| 20260509013111 | 65 | 35 | 10.4 | 18.2 | 0.00 | 0.00 | 0.00 | 47 | 906.7 |
| 20260509012611 | 65 | 36 | 9.6 | 18.2 | 0.00 | 0.00 | 0.00 | 43 | 906.8 |
| 20260509012111 | 65 | 16 | 7.0 | 13.9 | 0.00 | 0.00 | 0.00 | 43 | 906.4 |
| 20260509011611 | 65 | 46 | 8.7 | 13.0 | 0.00 | 0.00 | 0.00 | 45 | 906.9 |
| 20260509011111 | 65 | 26 | 7.8 | 21.7 | 0.00 | 0.00 | 0.00 | 46 | 906.9 |
| 20260509010611 | 65 | 28 | 7.8 | 14.8 | 0.00 | 0.00 | 0.00 | 45 | 906.9 |
| 20260509010111 | 65 | 26 | 8.7 | 14.8 | 0.00 | 0.00 | 0.00 | 45 | 906.9 |
| 20260509005611 | 65 | 30 | 7.8 | 20.9 | 0.00 | 0.00 | 0.00 | 51 | 907.0 |
| 20260509005111 | 64 | 359 | 7.8 | 13.0 | 0.00 | 0.00 | 0.00 | 49 | 907.1 |
| 20260509004611 | 64 | 30 | 8.7 | 17.4 | 0.00 | 0.00 | 0.00 | 47 | 907.2 |
| 20260509004111 | 64 | 359 | 8.7 | 20.0 | 0.00 | 0.00 | 0.00 | 49 | 906.9 |
| 20260509003611 | 63 | 18 | 9.6 | 14.8 | 0.00 | 0.00 | 0.00 | 49 | 906.7 |
| 20260509003111 | 63 | 35 | 11.3 | 20.9 | 0.00 | 0.00 | 0.00 | 47 | 906.8 |
| 20260509002611 | 63 | 38 | 11.3 | 19.1 | 0.00 | 0.00 | 0.00 | 50 | 906.6 |
| 20260509002111 | 63 | 35 | 8.7 | 16.5 | 0.00 | 0.00 | 0.00 | 50 | 906.7 |
| 20260509001611 | 63 | 35 | 10.4 | 14.8 | 0.00 | 0.00 | 0.00 | 52 | 906.6 |
| 20260509001111 | 62 | 27 | 11.3 | 23.5 | 0.00 | 0.00 | 0.00 | 54 | 906.8 |
| 20260509000611 | 63 | 32 | 9.6 | 18.2 | 0.00 | 0.00 | 0.00 | 49 | 906.6 |
| 20260509000111 | 63 | 4 | 8.7 | 17.4 | 0.00 | 0.00 | 0.00 | 48 | 906.5 |
| 20260508235611 | 62 | 25 | 8.7 | 13.9 | 0.00 | 0.00 | 0.00 | 52 | 906.5 |
| 20260508235111 | 62 | 31 | 7.0 | 13.9 | 0.00 | 0.00 | 0.00 | 50 | 906.5 |
| 20260508234611 | 62 | 20 | 7.0 | 11.3 | 0.00 | 0.00 | 0.00 | 54 | 906.5 |
| 20260508234111 | 62 | 37 | 7.8 | 12.2 | 0.00 | 0.00 | 0.00 | 53 | 906.6 |
| 20260508233611 | 62 | 33 | 8.7 | 19.1 | 0.00 | 0.00 | 0.00 | 52 | 906.6 |
| 20260508233111 | 62 | 13 | 9.6 | 13.0 | 0.00 | 0.00 | 0.00 | 53 | 906.5 |
| 20260508232611 | 62 | 4 | 9.6 | 19.1 | 0.00 | 0.00 | 0.00 | 50 | 906.2 |
| 20260508232111 | 62 | 4 | 8.7 | 17.4 | 0.00 | 0.00 | 0.00 | 51 | 906.2 |
| 20260508231611 | 61 | 35 | 8.7 | 18.2 | 0.00 | 0.00 | 0.00 | 55 | 906.3 |
| 20260508231111 | 61 | 37 | 8.7 | 18.2 | 0.00 | 0.00 | 0.00 | 52 | 906.2 |
| 20260508230611 | 61 | 31 | 9.6 | 19.1 | 0.00 | 0.00 | 0.00 | 53 | 906.3 |
| 20260508230111 | 61 | 31 | 9.6 | 20.0 | 0.00 | 0.00 | 0.00 | 52 | 906.1 |
| 20260508225611 | 61 | 20 | 9.6 | 18.2 | 0.00 | 0.00 | 0.00 | 52 | 905.9 |
| 20260508225111 | 61 | 36 | 9.6 | 16.5 | 0.00 | 0.00 | 0.00 | 55 | 906.1 |
| 20260508224611 | 61 | 29 | 9.6 | 21.7 | 0.00 | 0.00 | 0.00 | 53 | 905.9 |
| 20260508224111 | 61 | 26 | 8.7 | 15.6 | 0.00 | 0.00 | 0.00 | 54 | 905.9 |
| 20260508223611 | 60 | 35 | 7.8 | 16.5 | 0.00 | 0.00 | 0.00 | 55 | 905.9 |
| 20260508223111 | 60 | 31 | 8.7 | 15.6 | 0.00 | 0.00 | 0.00 | 58 | 905.8 |
| 20260508222611 | 60 | 43 | 8.7 | 15.6 | 0.00 | 0.00 | 0.00 | 55 | 905.7 |
| 20260508222111 | 60 | 43 | 7.8 | 16.5 | 0.00 | 0.00 | 0.00 | 56 | 905.7 |
| 20260508221611 | 60 | 35 | 7.8 | 13.0 | 0.00 | 0.00 | 0.00 | 58 | 905.8 |
| 20260508221111 | 60 | 23 | 9.6 | 18.2 | 0.00 | 0.00 | 0.00 | 57 | 905.7 |
| 20260508220611 | 60 | 35 | 10.4 | 19.1 | 0.00 | 0.00 | 0.00 | 60 | 905.6 |
| 20260508220111 | 60 | 34 | 9.6 | 17.4 | 0.00 | 0.00 | 0.00 | 56 | 905.5 |
| 20260508215611 | 59 | 18 | 7.8 | 14.8 | 0.00 | 0.00 | 0.00 | 59 | 905.5 |
| 20260508215111 | 59 | 25 | 7.8 | 16.5 | 0.00 | 0.00 | 0.00 | 60 | 905.5 |
| 20260508214611 | 59 | 39 | 7.0 | 13.9 | 0.00 | 0.00 | 0.00 | 65 | 905.4 |
| 20260508214111 | 59 | 31 | 6.1 | 18.2 | 0.00 | 0.00 | 0.00 | 61 | 905.3 |
| 20260508213611 | 58 | 21 | 4.3 | 13.0 | 0.00 | 0.00 | 0.00 | 63 | 905.3 |
| 20260508213111 | 58 | 359 | 4.3 | 12.2 | 0.00 | 0.00 | 0.00 | 63 | 905.1 |
| 20260508212611 | 58 | 37 | 5.2 | 11.3 | 0.00 | 0.00 | 0.00 | 65 | 905.3 |
| 20260508212112 | 58 | 43 | 5.2 | 13.0 | 0.00 | 0.00 | 0.00 | 63 | 905.0 |
| 20260508211612 | 58 | 23 | 5.2 | 9.6 | 0.00 | 0.00 | 0.00 | 65 | 904.9 |
| 20260508211111 | 58 | 15 | 6.1 | 9.6 | 0.00 | 0.00 | 0.00 | 64 | 904.9 |
| 20260508210612 | 57 | 43 | 6.1 | 10.4 | 0.00 | 0.00 | 0.00 | 64 | 905.0 |
| 20260508210112 | 58 | 38 | 5.2 | 11.3 | 0.00 | 0.00 | 0.00 | 65 | 904.9 |
| 20260508205612 | 58 | 25 | 5.2 | 11.3 | 0.00 | 0.00 | 0.00 | 65 | 904.9 |
| 20260508205112 | 58 | 37 | 4.3 | 11.3 | 0.00 | 0.00 | 0.00 | 66 | 904.9 |
| 20260508204612 | 58 | 29 | 4.3 | 7.8 | 0.00 | 0.00 | 0.00 | 65 | 904.8 |
| 20260508204112 | 58 | 45 | 5.2 | 7.8 | 0.00 | 0.00 | 0.00 | 64 | 904.9 |
| 20260508203612 | 58 | 29 | 5.2 | 9.6 | 0.00 | 0.00 | 0.00 | 63 | 904.5 |
| 20260508203112 | 58 | 354 | 6.1 | 12.2 | 0.00 | 0.00 | 0.00 | 63 | 904.6 |
| 20260508202612 | 58 | 43 | 5.2 | 11.3 | 0.00 | 0.00 | 0.00 | 64 | 904.7 |
| 20260508202112 | 58 | 32 | 4.3 | 12.2 | 0.00 | 0.00 | 0.00 | 65 | 904.7 |
| 20260508201612 | 58 | 25 | 3.5 | 9.6 | 0.00 | 0.00 | 0.00 | 65 | 904.7 |
| 20260508201112 | 58 | 16 | 3.5 | 9.6 | 0.00 | 0.00 | 0.00 | 65 | 904.8 |
| 20260508200612 | 58 | 38 | 2.6 | 9.6 | 0.00 | 0.00 | 0.00 | 63 | 904.8 |
| 20260508200112 | 58 | 37 | 2.6 | 5.2 | 0.00 | 0.01 | 0.00 | 66 | 904.6 |
| 20260508195612 | 58 | 40 | 3.5 | 7.8 | 0.00 | 0.01 | 0.00 | 68 | 904.6 |
| 20260508195112 | 58 | 27 | 4.3 | 7.0 | 0.00 | 0.01 | 0.00 | 62 | 904.0 |
| 20260508194612 | 58 | 12 | 4.3 | 9.6 | 0.00 | 0.01 | 0.00 | 62 | 904.4 |
| 20260508194112 | 58 | 25 | 5.2 | 9.6 | 0.00 | 0.01 | 0.00 | 61 | 904.2 |
| 20260508193612 | 58 | 43 | 4.3 | 10.4 | 0.00 | 0.01 | 0.00 | 62 | 904.1 |
| 20260508193112 | 59 | 41 | 2.6 | 6.1 | 0.00 | 0.01 | 0.00 | 61 | 904.1 |
| 20260508192612 | 58 | 26 | 3.5 | 8.7 | 0.00 | 0.01 | 0.00 | 63 | 904.0 |
| 20260508192112 | 59 | 23 | 4.3 | 11.3 | 0.00 | 0.01 | 0.00 | 61 | 904.1 |
| 20260508191612 | 59 | 39 | 5.2 | 10.4 | 0.00 | 0.01 | 0.00 | 62 | 904.0 |
| 20260508191112 | 59 | 4 | 6.1 | 10.4 | 0.00 | 0.01 | 0.00 | 61 | 904.1 |
| 20260508190612 | 59 | 39 | 6.1 | 13.0 | 0.00 | 0.01 | 0.00 | 63 | 903.9 |
| 20260508190112 | 59 | 27 | 7.0 | 10.4 | 0.00 | 0.01 | 0.00 | 61 | 903.9 |
| 20260508185612 | 59 | 35 | 7.8 | 14.8 | 0.00 | 0.01 | 0.00 | 61 | 904.1 |
| 20260508185112 | 59 | 26 | 7.0 | 15.6 | 0.00 | 0.01 | 0.00 | 61 | 904.1 |
| 20260508184612 | 59 | 22 | 6.1 | 13.0 | 0.00 | 0.01 | 0.00 | 62 | 903.8 |
| 20260508184112 | 59 | 341 | 5.2 | 13.0 | 0.00 | 0.01 | 0.00 | 64 | 903.7 |
| 20260508183612 | 59 | 19 | 6.1 | 7.8 | 0.00 | 0.01 | 0.00 | 64 | 903.6 |
| 20260508183112 | 59 | 36 | 7.0 | 13.9 | 0.00 | 0.01 | 0.00 | 62 | 903.7 |
| 20260508182612 | 59 | 13 | 7.0 | 14.8 | 0.00 | 0.01 | 0.00 | 63 | 903.6 |
| 20260508182112 | 59 | 343 | 5.2 | 13.0 | 0.00 | 0.01 | 0.00 | 63 | 903.6 |
| 20260508181612 | 59 | 29 | 4.3 | 9.6 | 0.00 | 0.01 | 0.00 | 65 | 903.6 |
| 20260508181112 | 59 | 35 | 3.5 | 9.6 | 0.00 | 0.01 | 0.00 | 64 | 903.8 |
| 20260508180612 | 59 | 34 | 2.6 | 7.8 | 0.00 | 0.01 | 0.00 | 66 | 903.8 |
| 20260508180112 | 59 | 39 | 5.2 | 10.4 | 0.00 | 0.01 | 0.00 | 64 | 903.7 |
| 20260508175612 | 59 | 27 | 7.0 | 16.5 | 0.00 | 0.01 | 0.00 | 65 | 903.6 |
| 20260508175112 | 59 | 31 | 7.0 | 14.8 | 0.00 | 0.01 | 0.00 | 62 | 903.8 |
| 20260508174612 | 60 | 35 | 7.0 | 11.3 | 0.00 | 0.01 | 0.00 | 65 | 903.6 |
| 20260508174112 | 60 | 41 | 6.1 | 14.8 | 0.00 | 0.01 | 0.00 | 60 | 903.6 |
| 20260508173612 | 61 | 24 | 4.3 | 8.7 | 0.00 | 0.01 | 0.00 | 60 | 903.6 |
| 20260508173112 | 61 | 24 | 5.2 | 10.4 | 0.00 | 0.01 | 0.00 | 59 | 903.4 |
| 20260508172612 | 61 | 39 | 5.2 | 11.3 | 0.00 | 0.01 | 0.00 | 59 | 903.4 |
| 20260508172112 | 61 | 14 | 4.3 | 13.0 | 0.00 | 0.01 | 0.00 | 57 | 903.3 |
| 20260508171612 | 61 | 19 | 2.6 | 10.4 | 0.00 | 0.01 | 0.00 | 58 | 903.3 |
| 20260508171112 | 61 | 31 | 2.6 | 7.0 | 0.00 | 0.01 | 0.00 | 61 | 903.3 |
| 20260508170612 | 61 | 37 | 3.5 | 9.6 | 0.00 | 0.01 | 0.00 | 55 | 903.1 |
| 20260508170112 | 61 | 34 | 2.6 | 7.8 | 0.00 | 0.01 | 0.00 | 55 | 903.2 |
| 20260508165612 | 61 | 347 | 0.9 | 6.1 | 0.00 | 0.01 | 0.00 | 52 | 903.6 |
| 20260508165112 | 61 | 43 | 0.0 | 2.6 | 0.00 | 0.01 | 0.01 | 49 | 903.4 |
| 20260508164612 | 61 | 43 | 0.0 | 0.9 | 0.00 | 0.01 | 0.01 | 49 | 903.6 |
| 20260508164112 | 61 | 44 | 0.0 | 0.9 | 0.00 | 0.01 | 0.01 | 50 | 903.3 |
| 20260508163612 | 61 | 43 | 0.0 | 0.9 | 0.00 | 0.01 | 0.01 | 49 | 903.4 |
| 20260508163112 | 61 | 43 | 0.0 | 1.7 | 0.00 | 0.01 | 0.01 | 49 | 903.3 |
| 20260508162612 | 61 | 43 | 0.0 | 1.7 | 0.00 | 0.01 | 0.01 | 48 | 903.4 |
| 20260508162112 | 61 | 42 | 0.9 | 1.7 | 0.00 | 0.01 | 0.01 | 48 | 903.4 |
| 20260508161612 | 61 | 43 | 0.9 | 1.7 | 0.00 | 0.01 | 0.01 | 48 | 903.3 |
| 20260508161112 | 61 | 41 | 0.9 | 3.5 | 0.00 | 0.01 | 0.01 | 47 | 903.5 |
| 20260508160612 | 61 | 43 | 0.9 | 2.6 | 0.00 | 0.01 | 0.01 | 49 | 903.2 |
| 20260508160112 | 61 | 43 | 1.7 | 3.5 | 0.00 | 0.01 | 0.01 | 49 | 903.3 |
| 20260508155612 | 61 | 37 | 0.9 | 5.2 | 0.00 | 0.01 | 0.01 | 48 | 903.4 |
| 20260508155112 | 61 | 42 | 0.9 | 2.6 | 0.00 | 0.01 | 0.01 | 50 | 903.5 |
| 20260508154612 | 61 | 40 | 0.9 | 4.3 | 0.00 | 0.01 | 0.01 | 53 | 903.5 |
| 20260508154112 | 62 | 38 | 0.9 | 4.3 | 0.00 | 0.01 | 0.01 | 45 | 903.5 |
| 20260508153612 | 62 | 37 | 0.9 | 1.7 | 0.00 | 0.01 | 0.01 | 52 | 903.5 |
| 20260508153112 | 62 | 35 | 0.9 | 2.6 | 0.00 | 0.01 | 0.01 | 53 | 903.5 |
| 20260508152612 | 62 | 35 | 0.9 | 3.5 | 0.00 | 0.01 | 0.01 | 48 | 903.4 |
| 20260508152112 | 62 | 40 | 0.9 | 2.6 | 0.00 | 0.01 | 0.01 | 44 | 903.5 |
| 20260508151612 | 62 | 39 | 1.7 | 3.5 | 0.00 | 0.01 | 0.01 | 49 | 903.4 |
| 20260508151112 | 62 | 39 | 1.7 | 4.3 | 0.00 | 0.01 | 0.01 | 52 | 903.3 |
| 20260508150612 | 62 | 39 | 1.7 | 3.5 | 0.00 | 0.01 | 0.01 | 48 | 903.4 |